CHH753 ZPPP-VDSA

Flight info

Callsign CHH753
Flight time 1h 54m
Altitude 34000
Route ELASU A581 SAGAG/N0463F340 B218 VTN R470 ROT R345 BIDEM
Aircraft B738/M-SDE2E3FGHIRWXY/LB1

Departure

Time 2026-05-07 10:53
Airport Kunming Changshui International Airport (ZPPP)

Arrival

Time 2026-05-07 12:47
Airport Siem Reap-Angkor International Airport (VDSA)
Time Latitude Longitude Altitude Speed Heading
2026-05-07 10:35 25.10507 102.92866 6902 ft 0 kts 69°
2026-05-07 10:42 25.10504 102.92860 6901 ft 4 kts 69°
2026-05-07 10:43 25.10495 102.92832 6902 ft 3 kts 69°
2026-05-07 10:43 25.10485 102.92810 6902 ft 4 kts 38°
2026-05-07 10:43 25.10464 102.92804 6902 ft 4 kts 342°
2026-05-07 10:43 25.10450 102.92810 6902 ft 1 kts 338°
2026-05-07 10:44 25.10448 102.92811 6902 ft 0 kts 338°
2026-05-07 10:45 25.10453 102.92809 6902 ft 2 kts 338°
2026-05-07 10:45 25.10479 102.92798 6902 ft 6 kts 339°
2026-05-07 10:46 25.10524 102.92775 6902 ft 9 kts 334°
2026-05-07 10:46 25.10585 102.92742 6903 ft 11 kts 333°
2026-05-07 10:46 25.10662 102.92700 6912 ft 13 kts 333°
2026-05-07 10:46 25.10739 102.92638 6906 ft 15 kts 311°
2026-05-07 10:47 25.10809 102.92549 6909 ft 16 kts 312°
2026-05-07 10:47 25.10804 102.92444 6918 ft 16 kts 218°
2026-05-07 10:47 25.10718 102.92369 6910 ft 15 kts 218°
2026-05-07 10:47 25.10635 102.92297 6912 ft 15 kts 218°
2026-05-07 10:48 25.10553 102.92226 6909 ft 15 kts 218°
2026-05-07 10:48 25.10470 102.92154 6911 ft 16 kts 218°
2026-05-07 10:48 25.10369 102.92066 6907 ft 20 kts 218°
2026-05-07 10:48 25.10277 102.91985 6907 ft 12 kts 219°
2026-05-07 10:49 25.10213 102.91928 6907 ft 12 kts 219°
2026-05-07 10:49 25.10150 102.91873 6910 ft 11 kts 219°
2026-05-07 10:49 25.10160 102.91806 6911 ft 2 kts 314°
2026-05-07 10:51 25.10162 102.91805 6910 ft 1 kts 312°
2026-05-07 10:51 25.10167 102.91798 6913 ft 3 kts 309°
2026-05-07 10:51 25.10193 102.91764 6913 ft 9 kts 310°
2026-05-07 10:51 25.10248 102.91729 6912 ft 9 kts 358°
2026-05-07 10:52 25.10300 102.91761 6908 ft 9 kts 40°
2026-05-07 10:52 25.10327 102.91784 6908 ft 5 kts 38°
2026-05-07 10:52 25.10458 102.91899 6912 ft 52 kts 39°
2026-05-07 10:52 25.10902 102.92286 6905 ft 109 kts 38°
2026-05-07 10:53 25.11638 102.92926 6903 ft 157 kts 38°
2026-05-07 10:53 25.12583 102.93749 7111 ft 181 kts 38°
2026-05-07 10:53 25.13587 102.94633 7826 ft 189 kts 37°
2026-05-07 10:53 25.14673 102.95560 8238 ft 205 kts 29°
2026-05-07 10:54 25.15935 102.96292 8794 ft 207 kts 13°
2026-05-07 10:54 25.17387 102.96377 9001 ft 216 kts 345°
2026-05-07 10:54 25.18946 102.96102 9161 ft 238 kts 350°
2026-05-07 10:54 25.20675 102.95979 9306 ft 261 kts 355°
2026-05-07 10:55 25.22553 102.96014 9659 ft 276 kts 358°
2026-05-07 10:55 25.24460 102.95631 9883 ft 286 kts 327°
2026-05-07 10:55 25.25903 102.94147 10189 ft 292 kts 297°
2026-05-07 10:55 25.26532 102.91980 10347 ft 306 kts 274°
2026-05-07 10:56 25.26421 102.89561 10489 ft 327 kts 259°
2026-05-07 10:56 25.25656 102.87128 10631 ft 346 kts 245°
2026-05-07 10:56 25.24487 102.84723 10780 ft 363 kts 241°
2026-05-07 10:56 25.23188 102.82281 11063 ft 372 kts 240°
2026-05-07 10:57 25.21876 102.79811 11554 ft 374 kts 241°
2026-05-07 10:57 25.20582 102.77308 12006 ft 378 kts 242°
2026-05-07 10:57 25.19301 102.74762 12460 ft 379 kts 243°
2026-05-07 10:57 25.18036 102.72202 12926 ft 382 kts 243°
2026-05-07 10:58 25.16764 102.69604 13341 ft 387 kts 244°
2026-05-07 10:58 25.15482 102.66974 13768 ft 391 kts 244°
2026-05-07 10:58 25.14188 102.64321 14163 ft 394 kts 244°
2026-05-07 10:58 25.12887 102.61653 14585 ft 396 kts 244°
2026-05-07 10:59 25.11577 102.58971 15003 ft 397 kts 244°
2026-05-07 10:59 25.10264 102.56289 15444 ft 398 kts 244°
2026-05-07 10:59 25.08753 102.53712 15821 ft 404 kts 234°
2026-05-07 10:59 25.06836 102.51429 16224 ft 409 kts 226°
2026-05-07 11:00 25.04588 102.49468 16636 ft 415 kts 217°
2026-05-07 11:00 25.02165 102.47804 17006 ft 418 kts 215°
2026-05-07 11:00 24.99663 102.46147 17393 ft 420 kts 214°
2026-05-07 11:00 24.97146 102.44494 17790 ft 422 kts 214°
2026-05-07 11:01 24.94620 102.42831 18143 ft 424 kts 215°
2026-05-07 11:01 24.92091 102.41154 18445 ft 425 kts 215°
2026-05-07 11:01 24.89552 102.39462 18753 ft 427 kts 215°
2026-05-07 11:01 24.87083 102.37809 19060 ft 428 kts 215°
2026-05-07 11:02 24.84534 102.36100 19373 ft 429 kts 215°
2026-05-07 11:02 24.81982 102.34387 19630 ft 430 kts 215°
2026-05-07 11:02 24.79420 102.32667 19889 ft 431 kts 215°
2026-05-07 11:02 24.76858 102.30948 20184 ft 431 kts 215°
2026-05-07 11:03 24.74289 102.29223 20431 ft 434 kts 215°
2026-05-07 11:03 24.71703 102.27489 20726 ft 436 kts 215°
2026-05-07 11:03 24.69113 102.25753 21042 ft 436 kts 215°
2026-05-07 11:03 24.66531 102.24024 21400 ft 436 kts 214°
2026-05-07 11:04 24.63929 102.22283 21582 ft 439 kts 214°
2026-05-07 11:04 24.61313 102.20533 21784 ft 442 kts 214°
2026-05-07 11:04 24.58719 102.18799 22053 ft 442 kts 214°
2026-05-07 11:04 24.56088 102.17041 22341 ft 443 kts 214°
2026-05-07 11:05 24.53450 102.15279 22593 ft 444 kts 214°
2026-05-07 11:05 24.50802 102.13511 22799 ft 446 kts 214°
2026-05-07 11:05 24.48153 102.11744 23030 ft 447 kts 214°
2026-05-07 11:05 24.45490 102.09967 23248 ft 448 kts 214°
2026-05-07 11:06 24.42815 102.08184 23436 ft 450 kts 214°
2026-05-07 11:06 24.40136 102.06399 23633 ft 451 kts 214°
2026-05-07 11:06 24.37449 102.04610 23817 ft 452 kts 214°
2026-05-07 11:06 24.34760 102.02820 24007 ft 453 kts 214°
2026-05-07 11:07 24.32056 102.01022 24184 ft 455 kts 214°
2026-05-07 11:07 24.29353 101.99224 24340 ft 456 kts 214°
2026-05-07 11:07 24.26638 101.97419 24533 ft 456 kts 214°
2026-05-07 11:07 24.23922 101.95616 24703 ft 457 kts 214°
2026-05-07 11:08 24.21199 101.93808 24857 ft 459 kts 214°
2026-05-07 11:08 24.18464 101.91992 25018 ft 460 kts 214°
2026-05-07 11:08 24.15730 101.90178 25188 ft 461 kts 214°
2026-05-07 11:08 24.12986 101.88359 25360 ft 461 kts 214°
2026-05-07 11:09 24.10232 101.86534 25493 ft 463 kts 214°
2026-05-07 11:09 24.07472 101.84706 25594 ft 464 kts 214°
2026-05-07 11:09 24.04710 101.82877 25765 ft 464 kts 214°
2026-05-07 11:09 24.01943 101.81046 25934 ft 464 kts 214°
2026-05-07 11:10 23.99173 101.79215 26036 ft 466 kts 214°
2026-05-07 11:10 23.96394 101.77382 26133 ft 468 kts 214°
2026-05-07 11:10 23.93605 101.75551 26266 ft 468 kts 213°
2026-05-07 11:10 23.90810 101.73720 26419 ft 468 kts 214°
2026-05-07 11:11 23.88015 101.71891 26565 ft 469 kts 214°
2026-05-07 11:11 23.85218 101.70061 26684 ft 469 kts 214°
2026-05-07 11:11 23.82448 101.68247 26725 ft 471 kts 213°
2026-05-07 11:11 23.79628 101.66402 26818 ft 472 kts 213°
2026-05-07 11:12 23.76817 101.64563 27017 ft 471 kts 214°
2026-05-07 11:12 23.74010 101.62728 27235 ft 469 kts 214°
2026-05-07 11:12 23.71213 101.60901 27423 ft 468 kts 214°
2026-05-07 11:12 23.68417 101.59074 27578 ft 468 kts 214°
2026-05-07 11:13 23.65618 101.57246 27734 ft 469 kts 214°
2026-05-07 11:13 23.62821 101.55421 27946 ft 468 kts 214°
2026-05-07 11:13 23.60027 101.53598 28188 ft 466 kts 214°
2026-05-07 11:13 23.57243 101.51783 28416 ft 466 kts 214°
2026-05-07 11:14 23.54464 101.49973 28614 ft 466 kts 214°
2026-05-07 11:14 23.51685 101.48162 28804 ft 465 kts 214°
2026-05-07 11:14 23.48910 101.46355 29015 ft 465 kts 214°
2026-05-07 11:14 23.46135 101.44550 29232 ft 464 kts 214°
2026-05-07 11:15 23.43399 101.42769 29456 ft 464 kts 214°
2026-05-07 11:15 23.40633 101.40972 29696 ft 463 kts 214°
2026-05-07 11:15 23.37872 101.39178 29933 ft 462 kts 214°
2026-05-07 11:15 23.35109 101.37384 30114 ft 461 kts 214°
2026-05-07 11:16 23.32353 101.35594 30282 ft 461 kts 214°
2026-05-07 11:16 23.29595 101.33804 30476 ft 461 kts 214°
2026-05-07 11:16 23.26843 101.32020 30671 ft 460 kts 214°
2026-05-07 11:16 23.24097 101.30241 30875 ft 459 kts 214°
2026-05-07 11:17 23.21349 101.28461 30987 ft 460 kts 214°
2026-05-07 11:17 23.18600 101.26679 31180 ft 460 kts 214°
2026-05-07 11:17 23.15852 101.24901 31419 ft 458 kts 214°
2026-05-07 11:17 23.13108 101.23125 31651 ft 458 kts 214°
2026-05-07 11:18 23.10370 101.21355 31805 ft 459 kts 214°
2026-05-07 11:18 23.07633 101.19586 32001 ft 458 kts 214°
2026-05-07 11:18 23.04889 101.17814 32217 ft 457 kts 214°
2026-05-07 11:18 23.02156 101.16049 32428 ft 457 kts 214°
2026-05-07 11:19 22.99426 101.14287 32633 ft 456 kts 214°
2026-05-07 11:19 22.96701 101.12529 32847 ft 455 kts 214°
2026-05-07 11:19 22.93979 101.10774 33089 ft 454 kts 214°
2026-05-07 11:19 22.91262 101.09023 33301 ft 454 kts 214°
2026-05-07 11:20 22.88549 101.07275 33473 ft 454 kts 214°
2026-05-07 11:20 22.85841 101.05531 33719 ft 452 kts 214°
2026-05-07 11:20 22.83174 101.03814 33875 ft 452 kts 214°
2026-05-07 11:20 22.80466 101.02070 33872 ft 453 kts 214°
2026-05-07 11:21 22.74949 100.98742 33857 ft 459 kts 203°
2026-05-07 11:21 22.71809 100.98008 33880 ft 467 kts 189°
2026-05-07 11:21 22.68536 100.98102 33868 ft 476 kts 175°
2026-05-07 11:22 22.65331 100.99102 33886 ft 483 kts 163°
2026-05-07 11:22 22.62198 101.00448 33876 ft 485 kts 162°
2026-05-07 11:22 22.55973 101.03282 33872 ft 486 kts 161°
2026-05-07 11:23 22.49730 101.06082 33861 ft 486 kts 162°
2026-05-07 11:23 22.43467 101.08816 33873 ft 485 kts 162°
2026-05-07 11:24 22.37197 101.11527 33875 ft 485 kts 162°
2026-05-07 11:24 22.30954 101.14225 33868 ft 486 kts 162°
2026-05-07 11:25 22.24677 101.16938 33871 ft 487 kts 162°
2026-05-07 11:25 22.18381 101.19657 33856 ft 488 kts 162°
2026-05-07 11:26 22.12079 101.22378 33861 ft 488 kts 162°
2026-05-07 11:26 22.05780 101.25094 33856 ft 487 kts 162°
2026-05-07 11:27 21.99480 101.27808 33863 ft 489 kts 162°
2026-05-07 11:27 21.94219 101.30073 33849 ft 489 kts 162°
2026-05-07 11:28 21.87890 101.32798 33856 ft 489 kts 162°
2026-05-07 11:28 21.81577 101.35521 33859 ft 489 kts 162°
2026-05-07 11:29 21.75261 101.38245 33871 ft 489 kts 162°
2026-05-07 11:29 21.68940 101.40967 33863 ft 489 kts 162°
2026-05-07 11:30 21.62660 101.43669 33867 ft 489 kts 162°
2026-05-07 11:30 21.56341 101.46385 33868 ft 489 kts 162°
2026-05-07 11:31 21.50027 101.49096 33873 ft 488 kts 161°
2026-05-07 11:31 21.43720 101.51802 33866 ft 489 kts 161°
2026-05-07 11:32 21.34240 101.55865 33865 ft 489 kts 162°
2026-05-07 11:33 21.27924 101.58568 33874 ft 489 kts 162°
2026-05-07 11:33 21.21599 101.61274 33875 ft 489 kts 162°
2026-05-07 11:34 21.15275 101.63985 33864 ft 490 kts 161°
2026-05-07 11:34 21.08957 101.66716 33867 ft 490 kts 161°
2026-05-07 11:35 21.02632 101.69451 33863 ft 490 kts 161°
2026-05-07 11:35 20.96358 101.72158 33864 ft 490 kts 161°
2026-05-07 11:36 20.90035 101.74883 33854 ft 490 kts 161°
2026-05-07 11:36 20.83719 101.77602 33853 ft 489 kts 161°
2026-05-07 11:37 20.77401 101.80319 33845 ft 489 kts 161°
2026-05-07 11:37 20.71080 101.83035 33835 ft 489 kts 161°
2026-05-07 11:38 20.64772 101.85744 33834 ft 489 kts 161°
2026-05-07 11:38 20.58448 101.88456 33843 ft 488 kts 161°
2026-05-07 11:39 20.52138 101.91160 33828 ft 489 kts 161°
2026-05-07 11:39 20.45825 101.93863 33825 ft 489 kts 161°
2026-05-07 11:40 20.39513 101.96564 33831 ft 489 kts 161°
2026-05-07 11:40 20.33199 101.99263 33809 ft 489 kts 161°
2026-05-07 11:41 20.26880 102.01961 33815 ft 489 kts 161°
2026-05-07 11:41 20.20553 102.04661 33795 ft 490 kts 161°
2026-05-07 11:42 20.14227 102.07358 33771 ft 490 kts 161°
2026-05-07 11:42 20.07900 102.10053 33761 ft 490 kts 161°
2026-05-07 11:43 20.01607 102.12732 33755 ft 490 kts 161°
2026-05-07 11:43 19.95273 102.15426 33751 ft 490 kts 161°
2026-05-07 11:44 19.88833 102.17776 33743 ft 487 kts 171°
2026-05-07 11:44 19.82183 102.19074 33747 ft 486 kts 173°
2026-05-07 11:45 19.75554 102.20283 33761 ft 487 kts 173°
2026-05-07 11:45 19.68882 102.21543 33770 ft 487 kts 172°
2026-05-07 11:46 19.62209 102.22839 33795 ft 488 kts 172°
2026-05-07 11:46 19.55529 102.24146 33802 ft 488 kts 172°
2026-05-07 11:47 19.48855 102.25449 33819 ft 488 kts 172°
2026-05-07 11:47 19.42177 102.26751 33823 ft 488 kts 172°
2026-05-07 11:48 19.35496 102.28051 33828 ft 488 kts 172°
2026-05-07 11:48 19.28824 102.29348 33831 ft 488 kts 172°
2026-05-07 11:49 19.22145 102.30645 33833 ft 488 kts 172°
2026-05-07 11:49 19.15469 102.31941 33833 ft 488 kts 172°
2026-05-07 11:50 19.08784 102.33238 33823 ft 488 kts 171°
2026-05-07 11:50 19.02106 102.34532 33825 ft 488 kts 171°
2026-05-07 11:51 18.95423 102.35826 33820 ft 488 kts 171°
2026-05-07 11:51 18.88784 102.37110 33816 ft 488 kts 171°
2026-05-07 11:52 18.82102 102.38402 33809 ft 488 kts 171°
2026-05-07 11:52 18.75415 102.39694 33806 ft 488 kts 171°
2026-05-07 11:53 18.68732 102.40983 33801 ft 489 kts 171°
2026-05-07 11:53 18.62038 102.42274 33803 ft 488 kts 171°
2026-05-07 11:54 18.49203 102.44746 33801 ft 489 kts 171°
2026-05-07 11:55 18.42490 102.46038 33804 ft 490 kts 171°
2026-05-07 11:55 18.35849 102.47315 33799 ft 491 kts 171°
2026-05-07 11:56 18.29122 102.48607 33800 ft 491 kts 171°
2026-05-07 11:56 18.22401 102.49897 33799 ft 492 kts 171°
2026-05-07 11:57 18.15663 102.51190 33800 ft 492 kts 171°
2026-05-07 11:57 18.08912 102.52484 33805 ft 493 kts 171°
2026-05-07 11:58 18.02150 102.53783 33800 ft 494 kts 169°
2026-05-07 11:58 17.95572 102.55914 33808 ft 496 kts 160°
2026-05-07 11:59 17.89109 102.58456 33802 ft 496 kts 160°
2026-05-07 11:59 17.82624 102.60938 33809 ft 496 kts 161°
2026-05-07 12:00 17.76164 102.63364 33817 ft 496 kts 161°
2026-05-07 12:00 17.69624 102.65820 33813 ft 496 kts 161°
2026-05-07 12:01 17.63123 102.68263 33810 ft 496 kts 161°
2026-05-07 12:01 17.56677 102.70683 33818 ft 495 kts 161°
2026-05-07 12:02 17.50189 102.73118 33802 ft 494 kts 161°
2026-05-07 12:02 17.43718 102.75544 33801 ft 494 kts 161°
2026-05-07 12:03 17.37415 102.78364 33794 ft 493 kts 149°
2026-05-07 12:03 17.31868 102.82595 33804 ft 493 kts 142°
2026-05-07 12:04 17.26466 102.87004 33807 ft 492 kts 142°
2026-05-07 12:04 17.21041 102.91358 33821 ft 492 kts 143°
2026-05-07 12:05 17.15590 102.95679 33829 ft 491 kts 143°
2026-05-07 12:05 17.10135 102.99993 33835 ft 491 kts 143°
2026-05-07 12:06 17.04695 103.04298 33842 ft 490 kts 143°
2026-05-07 12:06 16.99302 103.08563 33841 ft 489 kts 143°
2026-05-07 12:07 16.93882 103.12839 33840 ft 488 kts 143°
2026-05-07 12:07 16.88462 103.17103 33840 ft 487 kts 143°
2026-05-07 12:08 16.83051 103.21359 33839 ft 487 kts 142°
2026-05-07 12:08 16.77648 103.25608 33841 ft 486 kts 143°
2026-05-07 12:09 16.72250 103.29852 33841 ft 486 kts 143°
2026-05-07 12:09 16.66850 103.34092 33838 ft 485 kts 143°
2026-05-07 12:10 16.61452 103.38329 33834 ft 485 kts 143°
2026-05-07 12:10 16.56062 103.42557 33837 ft 485 kts 143°
2026-05-07 12:11 16.50665 103.46786 33828 ft 484 kts 143°
2026-05-07 12:11 16.45283 103.50994 33833 ft 484 kts 143°
2026-05-07 12:12 16.39902 103.55198 33833 ft 483 kts 143°
2026-05-07 12:12 16.34521 103.59401 33821 ft 483 kts 143°
2026-05-07 12:13 16.29176 103.63574 33816 ft 483 kts 143°
2026-05-07 12:13 16.23797 103.67771 33806 ft 483 kts 143°
2026-05-07 12:14 16.18414 103.71968 33801 ft 484 kts 143°
2026-05-07 12:14 16.12791 103.75771 33799 ft 483 kts 158°
2026-05-07 12:15 16.06307 103.77436 33798 ft 481 kts 179°
2026-05-07 12:15 15.99619 103.77520 33806 ft 481 kts 181°
2026-05-07 12:16 15.92917 103.77527 33812 ft 482 kts 180°
2026-05-07 12:16 15.86202 103.77592 33819 ft 483 kts 180°
2026-05-07 12:17 15.79467 103.77694 33408 ft 489 kts 180°
2026-05-07 12:17 15.76065 103.77749 32916 ft 488 kts 180°
2026-05-07 12:17 15.72675 103.77804 32424 ft 485 kts 180°
2026-05-07 12:17 15.69293 103.77859 31951 ft 485 kts 179°
2026-05-07 12:18 15.65915 103.77912 31483 ft 487 kts 179°
2026-05-07 12:18 15.62521 103.77966 31020 ft 488 kts 179°
2026-05-07 12:18 15.59165 103.78018 30573 ft 489 kts 179°
2026-05-07 12:18 15.55712 103.78072 30121 ft 490 kts 179°
2026-05-07 12:19 15.52345 103.78124 29642 ft 490 kts 179°
2026-05-07 12:19 15.48934 103.78178 29118 ft 490 kts 179°
2026-05-07 12:19 15.45516 103.78231 28616 ft 491 kts 179°
2026-05-07 12:19 15.42098 103.78284 28116 ft 491 kts 179°
2026-05-07 12:20 15.38684 103.78338 27623 ft 492 kts 179°
2026-05-07 12:20 15.35256 103.78391 27141 ft 492 kts 179°
2026-05-07 12:20 15.31827 103.78445 26665 ft 493 kts 179°
2026-05-07 12:20 15.28399 103.78498 26199 ft 494 kts 178°
2026-05-07 12:21 15.26122 103.78534 25897 ft 495 kts 178°
2026-05-07 12:21 15.23509 103.78575 25553 ft 495 kts 178°
2026-05-07 12:21 15.20058 103.78628 25100 ft 496 kts 178°
2026-05-07 12:21 15.16600 103.78682 24658 ft 497 kts 178°
2026-05-07 12:22 15.13152 103.78740 24215 ft 491 kts 178°
2026-05-07 12:22 15.09773 103.78806 23776 ft 480 kts 178°
2026-05-07 12:22 15.06472 103.78876 23331 ft 470 kts 178°
2026-05-07 12:22 15.03234 103.78944 22815 ft 461 kts 178°
2026-05-07 12:23 15.00054 103.79011 22304 ft 453 kts 178°
2026-05-07 12:23 14.96930 103.79074 21800 ft 445 kts 178°
2026-05-07 12:23 14.93890 103.79126 21325 ft 438 kts 178°
2026-05-07 12:23 14.90870 103.79147 20848 ft 432 kts 179°
2026-05-07 12:24 14.87885 103.79157 20367 ft 426 kts 179°
2026-05-07 12:24 14.84945 103.79169 19907 ft 420 kts 179°
2026-05-07 12:24 14.82037 103.79186 19456 ft 415 kts 179°
2026-05-07 12:24 14.79172 103.79205 19004 ft 410 kts 178°
2026-05-07 12:25 14.76338 103.79234 18561 ft 405 kts 178°
2026-05-07 12:25 14.73521 103.79268 18123 ft 403 kts 178°
2026-05-07 12:25 14.70721 103.79302 17621 ft 401 kts 178°
2026-05-07 12:25 14.67937 103.79336 17114 ft 398 kts 178°
2026-05-07 12:26 14.65178 103.79369 16642 ft 395 kts 178°
2026-05-07 12:26 14.62440 103.79401 16142 ft 392 kts 178°
2026-05-07 12:26 14.59721 103.79432 15660 ft 389 kts 178°
2026-05-07 12:26 14.57019 103.79463 15180 ft 386 kts 178°
2026-05-07 12:27 14.54339 103.79494 14735 ft 384 kts 178°
2026-05-07 12:27 14.51681 103.79524 14267 ft 381 kts 178°
2026-05-07 12:27 14.49040 103.79555 13817 ft 378 kts 178°
2026-05-07 12:27 14.46423 103.79585 13339 ft 375 kts 178°
2026-05-07 12:28 14.43856 103.79615 12843 ft 372 kts 178°
2026-05-07 12:28 14.41269 103.79644 12353 ft 370 kts 178°
2026-05-07 12:28 14.38708 103.79673 11867 ft 367 kts 178°
2026-05-07 12:28 14.36173 103.79853 11378 ft 364 kts 166°
2026-05-07 12:29 14.33802 103.80708 11002 ft 357 kts 156°
2026-05-07 12:29 14.31563 103.81673 10933 ft 342 kts 156°
2026-05-07 12:29 14.29415 103.82613 10845 ft 329 kts 156°
2026-05-07 12:29 14.27344 103.83514 10768 ft 317 kts 156°
2026-05-07 12:30 14.25345 103.84378 10689 ft 306 kts 156°
2026-05-07 12:30 14.23410 103.85207 10578 ft 297 kts 156°
2026-05-07 12:30 14.21518 103.86014 10324 ft 294 kts 156°
2026-05-07 12:30 14.19624 103.86819 10006 ft 294 kts 156°
2026-05-07 12:31 14.17737 103.87620 9704 ft 293 kts 156°
2026-05-07 12:31 14.15857 103.88416 9393 ft 291 kts 156°
2026-05-07 12:31 14.13987 103.89206 9076 ft 290 kts 156°
2026-05-07 12:31 14.12124 103.89994 8771 ft 288 kts 156°
2026-05-07 12:32 14.10272 103.90776 8456 ft 287 kts 156°
2026-05-07 12:32 14.08422 103.91557 8148 ft 286 kts 156°
2026-05-07 12:32 14.06585 103.92332 7849 ft 285 kts 156°
2026-05-07 12:32 14.04749 103.93107 7556 ft 284 kts 156°
2026-05-07 12:33 14.01133 103.94632 6974 ft 282 kts 156°
2026-05-07 12:33 13.99320 103.95397 6689 ft 280 kts 156°
2026-05-07 12:33 13.97520 103.96156 6403 ft 279 kts 156°
2026-05-07 12:34 13.95725 103.96913 6135 ft 278 kts 156°
2026-05-07 12:34 13.93936 103.97667 6059 ft 279 kts 156°
2026-05-07 12:34 13.92135 103.98427 6021 ft 280 kts 156°
2026-05-07 12:34 13.90341 103.99182 6013 ft 277 kts 156°
2026-05-07 12:35 13.88557 103.99935 6015 ft 278 kts 156°
2026-05-07 12:35 13.86768 104.00689 6020 ft 278 kts 156°
2026-05-07 12:35 13.84977 104.01442 6004 ft 278 kts 156°
2026-05-07 12:35 13.83221 104.02263 6000 ft 276 kts 145°
2026-05-07 12:36 13.81836 104.03600 6026 ft 273 kts 131°
2026-05-07 12:36 13.80556 104.05047 6011 ft 274 kts 131°
2026-05-07 12:36 13.79276 104.06494 6019 ft 274 kts 131°
2026-05-07 12:36 13.78003 104.07922 5996 ft 274 kts 131°
2026-05-07 12:37 13.76716 104.09356 5821 ft 271 kts 131°
2026-05-07 12:37 13.75434 104.10782 5466 ft 272 kts 132°
2026-05-07 12:37 13.74144 104.12215 5130 ft 273 kts 132°
2026-05-07 12:37 13.73293 104.13160 4938 ft 272 kts 132°
2026-05-07 12:38 13.72007 104.14587 4668 ft 271 kts 132°
2026-05-07 12:38 13.70727 104.16007 4366 ft 271 kts 132°
2026-05-07 12:38 13.69448 104.17426 4116 ft 268 kts 132°
2026-05-07 12:38 13.67809 104.19245 4033 ft 255 kts 132°
2026-05-07 12:39 13.66625 104.20559 3962 ft 246 kts 132°
2026-05-07 12:39 13.65854 104.21414 3937 ft 237 kts 132°
2026-05-07 12:39 13.64768 104.22619 3851 ft 222 kts 132°
2026-05-07 12:39 13.63417 104.24118 3550 ft 213 kts 133°
2026-05-07 12:40 13.62434 104.25209 3414 ft 200 kts 133°
2026-05-07 12:40 13.61820 104.25890 3307 ft 193 kts 133°
2026-05-07 12:40 13.60911 104.26899 2992 ft 192 kts 133°
2026-05-07 12:40 13.59999 104.27909 2657 ft 192 kts 133°
2026-05-07 12:41 13.59096 104.28910 2352 ft 191 kts 133°
2026-05-07 12:41 13.58195 104.29908 2081 ft 190 kts 133°
2026-05-07 12:41 13.57286 104.30915 2055 ft 193 kts 133°
2026-05-07 12:41 13.56341 104.31876 2020 ft 190 kts 138°
2026-05-07 12:42 13.55358 104.32779 2019 ft 189 kts 139°
2026-05-07 12:42 13.54374 104.33680 2023 ft 190 kts 139°
2026-05-07 12:42 13.53384 104.34589 2021 ft 191 kts 139°
2026-05-07 12:42 13.52395 104.35499 2010 ft 190 kts 140°
2026-05-07 12:43 13.51235 104.36100 2024 ft 187 kts 168°
2026-05-07 12:43 13.49959 104.36032 1998 ft 187 kts 206°
2026-05-07 12:43 13.48893 104.35277 2034 ft 190 kts 217°
2026-05-07 12:43 13.47864 104.34412 2023 ft 191 kts 220°
2026-05-07 12:44 13.46879 104.33515 2004 ft 185 kts 223°
2026-05-07 12:44 13.46028 104.32623 1992 ft 165 kts 226°
2026-05-07 12:44 13.45287 104.31793 2039 ft 152 kts 227°
2026-05-07 12:44 13.44584 104.30997 1983 ft 150 kts 227°
2026-05-07 12:45 13.43887 104.30206 1822 ft 149 kts 227°
2026-05-07 12:45 13.43193 104.29419 1652 ft 148 kts 227°
2026-05-07 12:45 13.42504 104.28637 1464 ft 147 kts 227°
2026-05-07 12:45 13.41817 104.27858 1274 ft 147 kts 227°
2026-05-07 12:46 13.41130 104.27078 1086 ft 147 kts 227°
2026-05-07 12:46 13.40443 104.26306 920 ft 146 kts 227°
2026-05-07 12:46 13.39759 104.25529 761 ft 146 kts 229°
2026-05-07 12:46 13.39080 104.24753 582 ft 146 kts 230°
2026-05-07 12:47 13.38404 104.23987 369 ft 143 kts 230°
2026-05-07 12:47 13.37755 104.23251 206 ft 129 kts 229°
2026-05-07 12:47 13.37251 104.22680 208 ft 87 kts 226°
2026-05-07 12:47 13.37015 104.22415 210 ft 25 kts 228°
2026-05-07 12:48 13.36918 104.22274 210 ft 24 kts 251°
2026-05-07 12:48 13.36888 104.22164 212 ft 12 kts 253°
2026-05-07 12:48 13.36868 104.22081 212 ft 12 kts 256°
2026-05-07 12:48 13.36870 104.22016 209 ft 7 kts 312°
2026-05-07 12:49 13.36927 104.21994 214 ft 12 kts 349°
2026-05-07 12:49 13.36999 104.22022 210 ft 12 kts 46°
2026-05-07 12:49 13.37011 104.22036 214 ft 0 kts 46°